Pittsburgh, PA

9:01 AM EST on December 08, 2019 (GMT -0500)
Pittsburgh International

Weather History for KPIT - October, 2019

Change the Weather History Date:

Sunday, October 27, 2019

  Actual Average Record
Temperature  
Mean Temperature 55 °F 49 °F  
Max Temperature 63 °F 59 °F 80 °F (1963)
Min Temperature 47 °F 40 °F 22 °F (1979)
Degree Days  
Heating Degree Days 10 16  
Month to date heating degree days 263 323  
Since 1 July heating degree days 271 437  
Cooling Degree Days 0 0  
Month to date cooling degree days 37 6  
Year to date cooling degree days 934 734  
Growing Degree Days 5 (Base 50)    
Moisture  
Dew Point 51 °F    
Average Humidity 80    
Maximum Humidity 97    
Minimum Humidity 60    
Precipitation  
Precipitation 0.58 in 0.08 in 1.61 in (1939)
Month to date precipitation 4.62 1.96  
Year to date precipitation 44.71 31.78  
Snow  
Snow 0.00 in 0.00 in 1.50 in (1957)
Month to date snowfall 0.0 0.2  
Snow Depth 0.00 in    
Sea Level Pressure  
Sea Level Pressure 29.85 in    
Wind  
Wind Speed 10 mph ()    
Max Wind Speed 25 mph    
Max Gust Speed 38 mph    
Visibility 9.1 miles    
Events Rain    
T = Trace of Precipitation, MM = Missing Value Source: Averaged Metar Reports

Daily Weather History Graph

Daily Weather History Graph

Search for Another Location

Airport or City:

Astronomy

Oct. 27, 2019 Rise Set
Actual Time 7:44 AM EDT 6:24 PM EDT
Civil Twilight 7:16 AM EDT 6:52 PM EDT
Nautical Twilight 6:44 AM EDT 7:24 PM EDT
Astronomical Twilight 6:13 AM EDT 7:55 PM EDT
Moon 6:51 AM EDT (10/27) 6:32 PM EDT (10/27)
Length of Visible Light 11h 35m
Length of Day
10h 39m
Waning Crescent, 0% of the Moon is Illuminated
Oct 27
Waning Crescent
Oct 27
New
Nov 4
First Quarter
Nov 12
Full
Nov 19
Last Quarter

Hourly Weather History & Observations

Time (EDT) Temp. Dew Point Humidity Pressure Visibility Wind Dir Wind Speed Gust Speed Precip Events Conditions
12:51 AM 55.0 °F 52.0 °F 89% 29.77 in 9.0 mi ESE 13.8 mph - 0.05 in   Overcast
1:51 AM 55.9 °F 53.1 °F 90% 29.73 in 10.0 mi SE 17.3 mph 24.2 mph 0.02 in   Overcast
2:51 AM 57.9 °F 53.1 °F 84% 29.70 in 10.0 mi SE 13.8 mph - N/A   Mostly Cloudy
3:51 AM 59.0 °F 54.0 °F 83% 29.68 in 6.0 mi SE 13.8 mph - 0.01 in Rain Light Rain
4:42 AM 57.9 °F 55.9 °F 93% 29.71 in 4.0 mi West 8.1 mph - 0.23 in Rain Rain
4:51 AM 57.9 °F 57.0 °F 97% 29.74 in 4.0 mi West 9.2 mph - 0.27 in Rain Rain
5:36 AM 59.0 °F 57.9 °F 96% 29.71 in 4.0 mi South 3.5 mph - 0.20 in Rain Light Rain
5:51 AM 59.0 °F 57.0 °F 93% 29.70 in 6.0 mi ESE 11.5 mph - 0.22 in Rain Light Rain
6:05 AM 59.0 °F 57.9 °F 96% 29.68 in 10.0 mi SE 8.1 mph - 0.01 in   Overcast
6:51 AM 59.0 °F 57.9 °F 96% 29.71 in 10.0 mi South 6.9 mph - 0.01 in   Scattered Clouds
7:51 AM 60.1 °F 55.9 °F 86% 29.72 in 10.0 mi SSW 15.0 mph 20.7 mph N/A   Partly Cloudy
8:51 AM 61.0 °F 55.0 °F 81% 29.75 in 10.0 mi SW 13.8 mph 26.5 mph N/A   Mostly Cloudy
9:33 AM 61.0 °F 54.0 °F 78% 29.74 in 10.0 mi SW 20.7 mph 28.8 mph N/A   Mostly Cloudy
9:51 AM 61.0 °F 53.1 °F 75% 29.77 in 10.0 mi SW 13.8 mph 24.2 mph N/A   Mostly Cloudy
11:51 AM 59.0 °F 48.0 °F 67% 29.83 in 10.0 mi WSW 12.7 mph 28.8 mph N/A   Overcast
12:23 PM 57.9 °F 46.9 °F 67% 29.84 in 10.0 mi WSW 16.1 mph 29.9 mph N/A   Overcast
12:51 PM 57.0 °F 46.9 °F 69% 29.87 in 10.0 mi WSW 15.0 mph 25.3 mph N/A   Overcast
1:51 PM 57.9 °F 48.0 °F 70% 29.88 in 10.0 mi WSW 11.5 mph 21.9 mph N/A   Overcast
2:12 PM 59.0 °F 48.0 °F 67% 29.86 in 10.0 mi West 16.1 mph 29.9 mph N/A   Overcast
2:51 PM 60.1 °F 48.0 °F 64% 29.89 in 10.0 mi West 17.3 mph 27.6 mph N/A   Mostly Cloudy
3:51 PM 62.1 °F 48.0 °F 60% 29.91 in 10.0 mi West 13.8 mph 20.7 mph N/A   Scattered Clouds
4:51 PM 62.1 °F 48.0 °F 60% 29.94 in 10.0 mi West 10.4 mph 19.6 mph N/A   Partly Cloudy
5:51 PM 60.1 °F 46.0 °F 60% 29.97 in 10.0 mi West 12.7 mph 24.2 mph N/A   Partly Cloudy
6:51 PM 55.9 °F 46.0 °F 69% 30.01 in 10.0 mi West 5.8 mph - N/A   Partly Cloudy
7:51 PM 54.0 °F 46.0 °F 75% 30.03 in 10.0 mi WSW 3.5 mph - N/A   Scattered Clouds
8:40 PM 53.1 °F 46.9 °F 80% 30.02 in 10.0 mi WSW 4.6 mph - N/A   Mostly Cloudy
8:51 PM 53.1 °F 46.9 °F 80% 30.04 in 10.0 mi WSW 4.6 mph - N/A   Mostly Cloudy
9:51 PM 53.1 °F 48.0 °F 83% 30.06 in 10.0 mi WSW 5.8 mph - N/A   Mostly Cloudy
10:11 PM 52.0 °F 46.9 °F 83% 30.05 in 10.0 mi WSW 4.6 mph - N/A   Scattered Clouds
10:51 PM 51.1 °F 46.9 °F 86% 30.09 in 10.0 mi WSW 4.6 mph - N/A   Partly Cloudy
11:51 PM 48.9 °F 46.0 °F 90% 30.10 in 10.0 mi Calm Calm - N/A   Clear